Flag for U.S.A. Weather past 2 weeks in Albany, New York, U.S.A.

Now
43 °F

Overcast.


Feels Like: 41 °F
Forecast: 32 / 59 °F
Wind: 3 mph from Northwest

Location: Albany County Airport

Current Time: Apr 26, 2015 at 9:11:17 AM

Latest Report: Apr 26, 2015 at 7:51 AM


Visibility: 10 mi

Pressure: 29.74 "Hg

Humidity: 58%

Dew point: 29 °F

Location of AlbanyLocation

Historic Weather in Albany — Graph

°F

Albany temperature yesterday

Maximum temperature yesterday: 57 °F (at 3:51 PM)
Minimum temperature yesterday: 30 °F (at 4:51 AM)
Average temperature yesterday: 44 °F

Past Weeks' High & Low Weather Summary

 TemperatureHumidityPressure
High74 °F (Apr 13, 2:51 PM)93% (Apr 18, 5:51 AM)30.49 "Hg (Apr 18, 5:51 AM)
Low29 °F (Apr 12, 4:51 AM)14% (Apr 16, 4:51 PM)29.54 "Hg (Apr 21, 5:51 AM)
Average50 °F52%29.98 "Hg
* Reported Apr 11 7:51 AM — Apr 26 7:51 AM, Albany, Weather by CustomWeather, © 2015

Note: Actual official high and low records may vary slightly from our data, if they occured in-between our weather recording intervals... More about our weather records

Advertising

Albany weather history for previous 24 hours

 ConditionsComfort  
Time TempWeatherWind HumidityBarometerVisibility
7:51 AM
Sun, Apr 26
43 °FOvercast.3 mph58%29.74 "Hg10 mi
6:51 AM42 °FOvercast.5 mph60%29.74 "Hg10 mi
5:51 AM41 °FOvercast.No wind62%29.72 "Hg10 mi
4:51 AM42 °FOvercast.3 mph60%29.71 "Hg10 mi
3:51 AM42 °FOvercast.5 mph60%29.71 "Hg10 mi
2:51 AM44 °FOvercast.3 mph53%29.72 "Hg10 mi
1:51 AM43 °FOvercast.No wind56%29.73 "Hg10 mi
12:51 AM44 °FPassing clouds.6 mph51%29.75 "Hg10 mi
11:51 PM
Sat, Apr 25
45 °FPassing clouds.5 mph51%29.76 "Hg10 mi
10:51 PM45 °FPassing clouds.7 mph49%29.76 "Hg10 mi
9:51 PM45 °FPassing clouds.6 mph51%29.75 "Hg10 mi
8:51 PM50 °FPassing clouds.No wind39%29.74 "Hg10 mi
7:51 PM51 °FPartly sunny.6 mph38%29.73 "Hg10 mi
6:51 PM53 °FPartly sunny.13 mph37%29.72 "Hg10 mi
5:51 PM54 °FPartly sunny.13 mph37%29.72 "Hg10 mi
4:51 PM55 °FPartly sunny.12 mph31%29.72 "Hg10 mi
3:51 PM57 °FPartly sunny.10 mph32%29.72 "Hg10 mi
2:51 PM55 °FScattered clouds.15 mph34%29.76 "Hg10 mi
1:51 PM53 °FPassing clouds.15 mph35%29.79 "Hg10 mi
12:51 PM51 °FPassing clouds.15 mph38%29.82 "Hg10 mi
11:51 AM49 °FPassing clouds.16 mph38%29.84 "Hg10 mi
10:51 AM46 °FPassing clouds.17 mph40%29.85 "Hg10 mi
9:51 AM43 °FPassing clouds.10 mph45%29.86 "Hg10 mi
Weather by CustomWeather, © 2015

See weather overviewHow to use our weather pages